Weather History for Meridian NAS, MS

Change the Weather History Date:

Tuesday, January 15, 2013

  Actual Average Record
Temperature  
Mean Temperature 39 °F -  
Max Temperature 41 °F 54 °F 70 °F (2007)
Min Temperature 37 °F 35 °F 24 °F (2009)
Degree Days  
Heating Degree Days 26    
Moisture  
Dew Point 37 °F    
Average Humidity 94    
Maximum Humidity 100    
Minimum Humidity 93    
Precipitation  
Precipitation 0.30 in - - ()
Sea Level Pressure  
Sea Level Pressure 30.09 in    
Wind  
Wind Speed 6 mph (North)    
Max Wind Speed 9 mph    
Max Gust Speed -    
Visibility 2 miles    
Events Rain    
Averages and records for this station are not official NWS values.
T = Trace of Precipitation, MM = Missing Value Source: NWS Daily Summary

Daily Weather History Graph

Daily Weather History Graph

Search for Another Location

Airport:

Trip Planner

Search our weather history database for the weather conditions in past years. The results will help you decide how hot, cold, wet, or windy it might be!

Date:

Astronomy

Jan. 15, 2013 Rise Set
Actual Time 6:56 AM CST 5:11 PM CST
Civil Twilight 6:29 AM CST 5:38 PM CST
Nautical Twilight 5:59 AM CST 6:08 PM CST
Astronomical Twilight 5:29 AM CST 6:38 PM CST
Moon 9:18 AM CST (1/15) 9:42 PM CST (1/15)
Length of Visible Light 11h 08m
Length of Day
10h 15m
Waxing Crescent, 19% of the Moon is Illuminated
Jan 15
Waxing Crescent
Jan 18
First Quarter
Jan 26
Full
Feb 3
Last Quarter
Feb 10
New

Hourly Weather History & Observations

Time (CST) Temp. Windchill Dew Point Humidity Pressure Visibility Wind Dir Wind Speed Gust Speed Precip Events Conditions
12:03 AM 37.4 °F 33.8 °F 35.6 °F 93% 30.14 in 5.0 mi NNW 4.6 mph - 0.00 in Rain Light Rain
12:56 AM 37.0 °F 32.4 °F 35.1 °F 93% 30.17 in 9.0 mi North 5.8 mph - 0.01 in   Overcast
1:56 AM 37.0 °F 31.6 °F 36.0 °F 96% 30.17 in 10.0 mi North 6.9 mph - N/A   Overcast
2:18 AM 37.4 °F 30.8 °F 35.6 °F 93% 30.12 in 9.0 mi North 9.2 mph - N/A   Overcast
2:56 AM 37.0 °F 30.4 °F 35.1 °F 93% 30.17 in 4.0 mi North 9.2 mph - N/A   Overcast
3:21 AM 37.4 °F 32.1 °F 35.6 °F 93% 30.12 in 2.0 mi North 6.9 mph - N/A   Overcast
3:32 AM 37.4 °F 31.4 °F 35.6 °F 93% 30.12 in 1.5 mi North 8.1 mph - N/A   Overcast
3:56 AM 37.0 °F 32.4 °F 35.1 °F 93% 30.15 in 1.2 mi NNE 5.8 mph - N/A   Overcast
4:15 AM 37.4 °F 32.8 °F 35.6 °F 93% 30.10 in 1.0 mi North 5.8 mph - N/A   Overcast
4:37 AM 37.4 °F 33.8 °F 35.6 °F 93% 30.11 in 1.2 mi North 4.6 mph - 0.01 in   Overcast
4:56 AM 37.0 °F 31.6 °F 36.0 °F 96% 30.15 in 1.0 mi North 6.9 mph - 0.01 in   Overcast
5:26 AM 37.4 °F 32.8 °F 35.6 °F 93% 30.10 in 0.8 mi NNE 5.8 mph - N/A   Overcast
5:44 AM 37.4 °F 31.4 °F 35.6 °F 93% 30.12 in 1.0 mi NNW 8.1 mph - N/A   Overcast
5:56 AM 37.0 °F 31.6 °F 36.0 °F 96% 30.16 in 1.0 mi North 6.9 mph - 0.00 in Rain Light Rain
6:54 AM 37.4 °F 32.1 °F 35.6 °F 93% 30.11 in 1.5 mi NNE 6.9 mph - 0.00 in   Overcast
6:56 AM 37.0 °F 32.4 °F 36.0 °F 96% 30.15 in 1.5 mi North 5.8 mph - 0.00 in   Overcast
7:19 AM 37.4 °F 32.8 °F 35.6 °F 93% 30.12 in 2.5 mi North 5.8 mph - N/A   Overcast
7:34 AM 37.4 °F 32.8 °F 35.6 °F 93% 30.12 in 1.8 mi North 5.8 mph - 0.00 in Rain Light Rain
7:56 AM 37.0 °F 34.5 °F 36.0 °F 96% 30.16 in 1.8 mi North 3.5 mph - 0.01 in Rain Light Rain
8:35 AM 37.4 °F 32.1 °F 35.6 °F 93% 30.11 in 2.0 mi NNE 6.9 mph - 0.00 in   Overcast
8:56 AM 37.9 °F 32.7 °F 36.0 °F 93% 30.15 in 2.0 mi North 6.9 mph - 0.00 in   Overcast
9:32 AM 37.4 °F 32.1 °F 35.6 °F 93% 30.10 in 2.0 mi NNE 6.9 mph - N/A   Overcast
9:56 AM 37.9 °F 33.5 °F 36.0 °F 93% 30.14 in 2.0 mi NNE 5.8 mph - 0.01 in Rain Light Rain
10:02 AM 37.4 °F 33.8 °F 37.4 °F 100% 30.09 in 1.0 mi NNE 4.6 mph - 0.08 in Rain Heavy Rain
10:12 AM 37.4 °F 33.8 °F 37.4 °F 100% 30.09 in 0.5 mi NNE 4.6 mph - 0.11 in Rain Light Rain
10:31 AM 37.4 °F 33.8 °F 37.4 °F 100% 30.08 in 0.5 mi North 4.6 mph - 0.15 in Rain Rain
10:56 AM 39.0 °F 35.7 °F 37.0 °F 93% 30.11 in 2.0 mi North 4.6 mph - 0.20 in Rain Light Rain
11:25 AM 39.2 °F 35.9 °F 37.4 °F 93% 30.06 in 1.8 mi North 4.6 mph - 0.04 in Rain Light Rain
11:30 AM 39.2 °F 37.0 °F 37.4 °F 93% 30.06 in 2.0 mi NE 3.5 mph - 0.04 in Rain Light Rain
11:46 AM 39.2 °F - 37.4 °F 93% 30.05 in 2.0 mi Calm Calm - 0.05 in Rain Light Rain
11:56 AM 39.0 °F 36.8 °F 37.0 °F 93% 30.09 in 2.0 mi NNE 3.5 mph - 0.05 in Rain Light Rain
12:56 PM 39.9 °F 37.8 °F 39.0 °F 97% 30.05 in 1.8 mi East 3.5 mph - 0.01 in   Overcast
1:38 PM 41.0 °F - 39.2 °F 93% 30.01 in 1.8 mi Calm Calm - N/A   Overcast
1:56 PM 41.0 °F - 39.0 °F 93% 30.04 in 1.2 mi Calm Calm - N/A   Overcast
2:44 PM 41.0 °F 37.1 °F 39.2 °F 93% 30.03 in 1.0 mi NW 5.8 mph - N/A   Overcast
2:56 PM 41.0 °F 37.1 °F 39.9 °F 96% 30.06 in 0.8 mi NNW 5.8 mph - N/A   Overcast
3:46 PM 41.0 °F 37.1 °F 39.2 °F 93% 30.03 in 1.0 mi NNW 5.8 mph - N/A   Overcast
3:56 PM 41.0 °F 36.4 °F 39.0 °F 93% 30.08 in 1.0 mi NNW 6.9 mph - N/A   Overcast
4:56 PM 41.0 °F 38.0 °F 39.0 °F 93% 30.07 in 1.0 mi North 4.6 mph - N/A   Overcast
5:56 PM 39.9 °F 34.5 °F 37.9 °F 93% 30.08 in 1.0 mi NNW 8.1 mph - N/A   Overcast
6:56 PM 39.0 °F 34.8 °F 37.9 °F 96% 30.07 in 0.8 mi North 5.8 mph - N/A   Overcast
7:06 PM 39.2 °F 35.9 °F 37.4 °F 93% 30.02 in 1.0 mi North 4.6 mph - N/A   Overcast
7:56 PM 37.9 °F 34.4 °F 37.0 °F 97% 30.06 in 1.0 mi North 4.6 mph - N/A   Overcast
8:56 PM 37.9 °F 34.4 °F 37.0 °F 97% 30.05 in 0.8 mi NNW 4.6 mph - N/A   Overcast
9:56 PM 37.9 °F 32.1 °F 37.0 °F 97% 30.06 in 0.8 mi NNW 8.1 mph - N/A   Overcast
10:56 PM 37.9 °F 32.1 °F 36.0 °F 93% 30.07 in 0.8 mi NW 8.1 mph - N/A   Overcast
11:03 PM 37.4 °F 32.1 °F 35.6 °F 93% 30.02 in 2.5 mi NNW 6.9 mph - N/A   Overcast
11:35 PM 37.4 °F 32.8 °F 35.6 °F 93% 30.03 in 3.0 mi NW 5.8 mph - N/A   Overcast
11:56 PM 37.9 °F 32.1 °F 36.0 °F 93% 30.06 in 5.0 mi NNW 8.1 mph - N/A   Overcast